owner,sensor,date,latitude,longitude,vertical_datum,mass_concentration_of_oxygen_in_sea_water,qcFlag 
SCCF RECON,ioos:station:SCCF:11:1,2012-08-01T00:00:00Z,26.4679,-82.0631,1.51,6.54,1111122 
SCCF RECON,ioos:station:SCCF:11:1,2012-08-01T01:00:00Z,26.4679,-82.0631,1.63,6.45,1111122 
SCCF RECON,ioos:station:SCCF:11:1,2012-08-01T02:00:00Z,26.4679,-82.0631,1.808,6.3,1111122 
SCCF RECON,ioos:station:SCCF:11:1,2012-08-01T03:00:00Z,26.4679,-82.0631,1.91,6.25,1111122 
SCCF RECON,ioos:station:SCCF:11:1,2012-08-01T04:00:00Z,26.4679,-82.0631,2.03,5.93,1111122 
SCCF RECON,ioos:station:SCCF:11:1,2012-08-01T05:00:00Z,26.4679,-82.0631,2.16,5.9,1111122 
SCCF RECON,ioos:station:SCCF:11:1,2012-08-01T06:00:00Z,26.4679,-82.0631,2.22,5.55,1111122 
SCCF RECON,ioos:station:SCCF:11:1,2012-08-01T07:00:00Z,26.4679,-82.0631,2.19,5.77,1111122 
SCCF RECON,ioos:station:SCCF:11:1,2012-08-01T08:00:00Z,26.4679,-82.0631,2.06,5.57,1111122 
SCCF RECON,ioos:station:SCCF:11:1,2012-08-01T09:00:00Z,26.4679,-82.0631,1.99,5.17,1111122 
SCCF RECON,ioos:station:SCCF:11:1,2012-08-01T10:00:00Z,26.4679,-82.0631,1.94,4.92,1111122 
SCCF RECON,ioos:station:SCCF:11:1,2012-08-01T11:00:00Z,26.4679,-82.0631,1.919,4.75,1111122 
SCCF RECON,ioos:station:SCCF:11:1,2012-08-01T12:00:00Z,26.4679,-82.0631,2.0,4.47,1111122 
SCCF RECON,ioos:station:SCCF:11:1,2012-08-01T13:00:00Z,26.4679,-82.0631,2.17,4.45,1111122 
SCCF RECON,ioos:station:SCCF:11:1,2012-08-01T14:00:00Z,26.4679,-82.0631,2.304,5.16,1111122 
SCCF RECON,ioos:station:SCCF:11:1,2012-08-01T15:00:00Z,26.4679,-82.0631,2.424,5.28,1111122 
SCCF RECON,ioos:station:SCCF:11:1,2012-08-01T16:00:00Z,26.4679,-82.0631,2.509,5.61,1111122 
SCCF RECON,ioos:station:SCCF:11:1,2012-08-01T17:00:00Z,26.4679,-82.0631,2.52,5.25,1111122 
SCCF RECON,ioos:station:SCCF:11:1,2012-08-01T18:00:00Z,26.4679,-82.0631,2.43,6.33,1111122 
SCCF RECON,ioos:station:SCCF:11:1,2012-08-01T19:00:00Z,26.4679,-82.0631,2.28,6.5,1111122 
SCCF RECON,ioos:station:SCCF:11:1,2012-08-01T20:00:00Z,26.4679,-82.0631,2.11,6.41,1111122 
SCCF RECON,ioos:station:SCCF:11:1,2012-08-01T21:00:00Z,26.4679,-82.0631,1.95,6.38,1111122 
SCCF RECON,ioos:station:SCCF:11:1,2012-08-01T22:00:00Z,26.4679,-82.0631,1.79,6.35,1111122 
SCCF RECON,ioos:station:SCCF:11:1,2012-08-01T23:00:00Z,26.4679,-82.0631,1.639,6.35,1111122 
SCCF RECON,ioos:station:SCCF:11:1,2012-08-02T00:00:00Z,26.4679,-82.0631,1.55,6.03,1111122 
SCCF RECON,ioos:station:SCCF:11:1,2012-08-02T01:00:00Z,26.4679,-82.0631,1.55,7.07,1111122 
SCCF RECON,ioos:station:SCCF:11:1,2012-08-02T02:00:00Z,26.4679,-82.0631,1.68,5.8,1111122 
SCCF RECON,ioos:station:SCCF:11:1,2012-08-02T03:00:00Z,26.4679,-82.0631,1.88,5.75,1111122 
SCCF RECON,ioos:station:SCCF:11:1,2012-08-02T04:00:00Z,26.4679,-82.0631,2.028,5.57,1111122 
SCCF RECON,ioos:station:SCCF:11:1,2012-08-02T05:00:00Z,26.4679,-82.0631,2.14,5.56,1111122 
SCCF RECON,ioos:station:SCCF:11:1,2012-08-02T06:00:00Z,26.4679,-82.0631,2.22,5.76,1111122 
SCCF RECON,ioos:station:SCCF:11:1,2012-08-02T07:00:00Z,26.4679,-82.0631,2.2,5.6,1111122 
SCCF RECON,ioos:station:SCCF:11:1,2012-08-02T08:00:00Z,26.4679,-82.0631,2.09,5.52,1111122 
SCCF RECON,ioos:station:SCCF:11:1,2012-08-02T09:00:00Z,26.4679,-82.0631,1.983,5.06,1111122 
SCCF RECON,ioos:station:SCCF:11:1,2012-08-02T10:00:00Z,26.4679,-82.0631,1.91,4.8,1111122 
SCCF RECON,ioos:station:SCCF:11:1,2012-08-02T11:00:00Z,26.4679,-82.0631,1.87,4.7,1111122 
SCCF RECON,ioos:station:SCCF:11:1,2012-08-02T12:00:00Z,26.4679,-82.0631,1.86,4.62,1111122 
SCCF RECON,ioos:station:SCCF:11:1,2012-08-02T13:00:00Z,26.4679,-82.0631,1.958,4.38,1111122 
SCCF RECON,ioos:station:SCCF:11:1,2012-08-02T14:00:00Z,26.4679,-82.0631,2.14,4.73,1111122 
SCCF RECON,ioos:station:SCCF:11:1,2012-08-02T15:00:00Z,26.4679,-82.0631,2.3,5.66,1111122 
SCCF RECON,ioos:station:SCCF:11:1,2012-08-02T16:00:00Z,26.4679,-82.0631,2.401,5.47,1111122 
SCCF RECON,ioos:station:SCCF:11:1,2012-08-02T17:00:00Z,26.4679,-82.0631,2.448,5.96,1111122 
SCCF RECON,ioos:station:SCCF:11:1,2012-08-02T18:00:00Z,26.4679,-82.0631,2.45,5.44,1111122 
SCCF RECON,ioos:station:SCCF:11:1,2012-08-02T19:00:00Z,26.4679,-82.0631,2.371,6.6,1111122 
SCCF RECON,ioos:station:SCCF:11:1,2012-08-02T20:00:00Z,26.4679,-82.0631,2.22,6.94,1111122 
SCCF RECON,ioos:station:SCCF:11:1,2012-08-02T21:00:00Z,26.4679,-82.0631,2.05,6.66,1111122 
SCCF RECON,ioos:station:SCCF:11:1,2012-08-02T22:00:00Z,26.4679,-82.0631,1.899,6.64,1111122 
SCCF RECON,ioos:station:SCCF:11:1,2012-08-02T23:00:00Z,26.4679,-82.0631,1.746,6.42,1111122 
SCCF RECON,ioos:station:SCCF:11:1,2012-08-03T00:00:00Z,26.4679,-82.0631,1.619,6.21,1111122 
SCCF RECON,ioos:station:SCCF:11:1,2012-08-03T01:00:00Z,26.4679,-82.0631,1.58,6.12,1111122 
SCCF RECON,ioos:station:SCCF:11:1,2012-08-03T02:00:00Z,26.4679,-82.0631,1.643,6.38,1111122 
SCCF RECON,ioos:station:SCCF:11:1,2012-08-03T03:00:00Z,26.4679,-82.0631,1.81,5.65,1111122 
SCCF RECON,ioos:station:SCCF:11:1,2012-08-03T04:00:00Z,26.4679,-82.0631,1.98,5.65,1111122 
SCCF RECON,ioos:station:SCCF:11:1,2012-08-03T05:00:00Z,26.4679,-82.0631,2.08,5.61,1111122 
SCCF RECON,ioos:station:SCCF:11:1,2012-08-03T06:00:00Z,26.4679,-82.0631,2.17,5.16,1111122 
SCCF RECON,ioos:station:SCCF:11:1,2012-08-03T07:00:00Z,26.4679,-82.0631,2.2,5.37,1111122 
SCCF RECON,ioos:station:SCCF:11:1,2012-08-03T08:00:00Z,26.4679,-82.0631,2.15,5.47,1111122 
SCCF RECON,ioos:station:SCCF:11:1,2012-08-03T09:00:00Z,26.4679,-82.0631,2.05,5.25,1111122 
SCCF RECON,ioos:station:SCCF:11:1,2012-08-03T10:00:00Z,26.4679,-82.0631,1.95,4.77,1111122 
SCCF RECON,ioos:station:SCCF:11:1,2012-08-03T11:00:00Z,26.4679,-82.0631,1.88,4.66,1111122 
SCCF RECON,ioos:station:SCCF:11:1,2012-08-03T12:00:00Z,26.4679,-82.0631,1.829,4.61,1111122 
SCCF RECON,ioos:station:SCCF:11:1,2012-08-03T13:00:00Z,26.4679,-82.0631,1.84,4.48,1111122 
SCCF RECON,ioos:station:SCCF:11:1,2012-08-03T14:00:00Z,26.4679,-82.0631,1.951,4.41,1111122 
SCCF RECON,ioos:station:SCCF:11:1,2012-08-03T15:00:00Z,26.4679,-82.0631,2.12,5.1,1111122 
SCCF RECON,ioos:station:SCCF:11:1,2012-08-03T16:00:00Z,26.4679,-82.0631,2.26,5.98,1111122 
SCCF RECON,ioos:station:SCCF:11:1,2012-08-03T17:00:00Z,26.4679,-82.0631,2.36,5.65,1111122 
SCCF RECON,ioos:station:SCCF:11:1,2012-08-03T18:00:00Z,26.4679,-82.0631,2.41,6.42,1111122 
SCCF RECON,ioos:station:SCCF:11:1,2012-08-03T19:00:00Z,26.4679,-82.0631,2.394,6.17,1111122 
SCCF RECON,ioos:station:SCCF:11:1,2012-08-03T20:00:00Z,26.4679,-82.0631,2.302,6.98,1111122 
SCCF RECON,ioos:station:SCCF:11:1,2012-08-03T21:00:00Z,26.4679,-82.0631,2.163,6.97,1111122 
SCCF RECON,ioos:station:SCCF:11:1,2012-08-03T22:00:00Z,26.4679,-82.0631,2.014,6.82,1111122 
SCCF RECON,ioos:station:SCCF:11:1,2012-08-03T23:00:00Z,26.4679,-82.0631,1.9,6.63,1111122 
SCCF RECON,ioos:station:SCCF:11:1,2012-08-04T00:00:00Z,26.4679,-82.0631,1.74,6.16,1111122 
SCCF RECON,ioos:station:SCCF:11:1,2012-08-04T01:00:00Z,26.4679,-82.0631,1.65,5.68,1111122 
SCCF RECON,ioos:station:SCCF:11:1,2012-08-04T02:00:00Z,26.4679,-82.0631,1.611,5.45,1111122 
SCCF RECON,ioos:station:SCCF:11:1,2012-08-04T03:00:00Z,26.4679,-82.0631,1.72,5.64,1111122 
SCCF RECON,ioos:station:SCCF:11:1,2012-08-04T04:00:00Z,26.4679,-82.0631,1.86,5.49,1111122 
SCCF RECON,ioos:station:SCCF:11:1,2012-08-04T05:00:00Z,26.4679,-82.0631,2.04,5.26,1111122 
SCCF RECON,ioos:station:SCCF:11:1,2012-08-04T06:00:00Z,26.4679,-82.0631,2.15,5.34,1111122 
SCCF RECON,ioos:station:SCCF:11:1,2012-08-04T07:00:00Z,26.4679,-82.0631,2.19,5.18,1111122 
SCCF RECON,ioos:station:SCCF:11:1,2012-08-04T08:00:00Z,26.4679,-82.0631,2.21,4.84,1111122 
SCCF RECON,ioos:station:SCCF:11:1,2012-08-04T09:00:00Z,26.4679,-82.0631,2.16,5.13,1111122 
SCCF RECON,ioos:station:SCCF:11:1,2012-08-04T10:00:00Z,26.4679,-82.0631,2.01,5.07,1111122 
SCCF RECON,ioos:station:SCCF:11:1,2012-08-04T11:00:00Z,26.4679,-82.0631,1.92,4.51,1111122 
SCCF RECON,ioos:station:SCCF:11:1,2012-08-04T12:00:00Z,26.4679,-82.0631,1.849,4.33,1111122 
SCCF RECON,ioos:station:SCCF:11:1,2012-08-04T13:00:00Z,26.4679,-82.0631,1.81,4.33,1111122 
SCCF RECON,ioos:station:SCCF:11:1,2012-08-04T14:00:00Z,26.4679,-82.0631,1.86,4.35,1111122 
SCCF RECON,ioos:station:SCCF:11:1,2012-08-04T15:00:00Z,26.4679,-82.0631,1.981,5.28,1111122 
SCCF RECON,ioos:station:SCCF:11:1,2012-08-04T16:00:00Z,26.4679,-82.0631,2.136,5.42,1111122 
SCCF RECON,ioos:station:SCCF:11:1,2012-08-04T17:00:00Z,26.4679,-82.0631,2.26,6.2,1111122 
SCCF RECON,ioos:station:SCCF:11:1,2012-08-04T18:00:00Z,26.4679,-82.0631,2.34,5.79,1111122 
SCCF RECON,ioos:station:SCCF:11:1,2012-08-04T19:00:00Z,26.4679,-82.0631,2.38,6.07,1111122 
SCCF RECON,ioos:station:SCCF:11:1,2012-08-04T20:00:00Z,26.4679,-82.0631,2.361,6.11,1111122 
SCCF RECON,ioos:station:SCCF:11:1,2012-08-04T21:00:00Z,26.4679,-82.0631,2.247,7.01,1111122 
SCCF RECON,ioos:station:SCCF:11:1,2012-08-04T22:00:00Z,26.4679,-82.0631,2.1,7.1,1111122 
SCCF RECON,ioos:station:SCCF:11:1,2012-08-04T23:00:00Z,26.4679,-82.0631,1.968,6.96,1111122 
SCCF RECON,ioos:station:SCCF:11:1,2012-08-05T00:00:00Z,26.4679,-82.0631,1.869,6.83,1111122 
SCCF RECON,ioos:station:SCCF:11:1,2012-08-05T01:00:00Z,26.4679,-82.0631,1.767,6.29,1111122 
SCCF RECON,ioos:station:SCCF:11:1,2012-08-05T02:00:00Z,26.4679,-82.0631,1.737,6.06,1111122 
SCCF RECON,ioos:station:SCCF:11:1,2012-08-05T03:00:00Z,26.4679,-82.0631,1.73,6.32,1111122 
SCCF RECON,ioos:station:SCCF:11:1,2012-08-05T04:00:00Z,26.4679,-82.0631,1.87,5.73,1111122 
SCCF RECON,ioos:station:SCCF:11:1,2012-08-05T05:00:00Z,26.4679,-82.0631,2.04,5.98,1111122 
SCCF RECON,ioos:station:SCCF:11:1,2012-08-05T06:00:00Z,26.4679,-82.0631,2.144,5.32,1111122 
SCCF RECON,ioos:station:SCCF:11:1,2012-08-05T07:00:00Z,26.4679,-82.0631,2.21,5.51,1111122 
SCCF RECON,ioos:station:SCCF:11:1,2012-08-05T08:00:00Z,26.4679,-82.0631,2.243,5.29,1111122 
SCCF RECON,ioos:station:SCCF:11:1,2012-08-05T09:00:00Z,26.4679,-82.0631,2.22,5.24,1111122 
SCCF RECON,ioos:station:SCCF:11:1,2012-08-05T10:00:00Z,26.4679,-82.0631,2.139,5.39,1111122 
SCCF RECON,ioos:station:SCCF:11:1,2012-08-05T11:00:00Z,26.4679,-82.0631,2.04,5.08,1111122 
SCCF RECON,ioos:station:SCCF:11:1,2012-08-05T12:00:00Z,26.4679,-82.0631,1.92,4.48,1111122 
SCCF RECON,ioos:station:SCCF:11:1,2012-08-05T13:00:00Z,26.4679,-82.0631,1.829,4.44,1111122 
SCCF RECON,ioos:station:SCCF:11:1,2012-08-05T14:00:00Z,26.4679,-82.0631,1.765,4.35,1111122 
SCCF RECON,ioos:station:SCCF:11:1,2012-08-05T15:00:00Z,26.4679,-82.0631,1.819,4.41,1111122 
SCCF RECON,ioos:station:SCCF:11:1,2012-08-05T16:00:00Z,26.4679,-82.0631,1.953,5.51,1111122 
SCCF RECON,ioos:station:SCCF:11:1,2012-08-05T17:00:00Z,26.4679,-82.0631,2.1,6.34,1111122 
SCCF RECON,ioos:station:SCCF:11:1,2012-08-05T18:00:00Z,26.4679,-82.0631,2.2,6.14,1111122 
SCCF RECON,ioos:station:SCCF:11:1,2012-08-05T19:00:00Z,26.4679,-82.0631,2.287,5.61,1111122 
SCCF RECON,ioos:station:SCCF:11:1,2012-08-05T20:00:00Z,26.4679,-82.0631,2.3,6.04,1111122 
SCCF RECON,ioos:station:SCCF:11:1,2012-08-05T21:00:00Z,26.4679,-82.0631,2.267,6.68,1111122 
SCCF RECON,ioos:station:SCCF:11:1,2012-08-05T22:00:00Z,26.4679,-82.0631,2.14,6.28,1111122 
SCCF RECON,ioos:station:SCCF:11:1,2012-08-05T23:00:00Z,26.4679,-82.0631,2.07,6.31,1111122 
SCCF RECON,ioos:station:SCCF:11:1,2012-08-06T00:00:00Z,26.4679,-82.0631,1.911,5.98,1111122 
SCCF RECON,ioos:station:SCCF:11:1,2012-08-06T01:00:00Z,26.4679,-82.0631,1.83,5.61,1111122 
SCCF RECON,ioos:station:SCCF:11:1,2012-08-06T02:00:00Z,26.4679,-82.0631,1.75,5.35,1111122 
SCCF RECON,ioos:station:SCCF:11:1,2012-08-06T03:00:00Z,26.4679,-82.0631,1.71,5.32,1111122 
SCCF RECON,ioos:station:SCCF:11:1,2012-08-06T04:00:00Z,26.4679,-82.0631,1.81,4.81,1111122 
SCCF RECON,ioos:station:SCCF:11:1,2012-08-06T05:00:00Z,26.4679,-82.0631,1.97,5.03,1111122 
SCCF RECON,ioos:station:SCCF:11:1,2012-08-06T06:00:00Z,26.4679,-82.0631,2.1,5.4,1111122 
SCCF RECON,ioos:station:SCCF:11:1,2012-08-06T07:00:00Z,26.4679,-82.0631,2.18,5.28,1111122 
SCCF RECON,ioos:station:SCCF:11:1,2012-08-06T08:00:00Z,26.4679,-82.0631,2.23,5.06,1111122 
SCCF RECON,ioos:station:SCCF:11:1,2012-08-06T09:00:00Z,26.4679,-82.0631,2.19,5.04,1111122 
SCCF RECON,ioos:station:SCCF:11:1,2012-08-06T10:00:00Z,26.4679,-82.0631,2.1,4.99,1111122 
SCCF RECON,ioos:station:SCCF:11:1,2012-08-06T11:00:00Z,26.4679,-82.0631,2.0,4.51,1111122 
SCCF RECON,ioos:station:SCCF:11:1,2012-08-06T12:00:00Z,26.4679,-82.0631,1.96,4.32,1111122 
SCCF RECON,ioos:station:SCCF:11:1,2012-08-06T13:00:00Z,26.4679,-82.0631,1.86,4.49,1111122 
SCCF RECON,ioos:station:SCCF:11:1,2012-08-06T14:00:00Z,26.4679,-82.0631,1.768,4.26,1111122 
SCCF RECON,ioos:station:SCCF:11:1,2012-08-06T15:00:00Z,26.4679,-82.0631,1.728,4.87,1111122 
SCCF RECON,ioos:station:SCCF:11:1,2012-08-06T16:00:00Z,26.4679,-82.0631,1.802,4.75,1111122 
SCCF RECON,ioos:station:SCCF:11:1,2012-08-06T17:00:00Z,26.4679,-82.0631,1.932,5.74,1111122 
SCCF RECON,ioos:station:SCCF:11:1,2012-08-06T18:00:00Z,26.4679,-82.0631,2.074,6.54,1111122 
SCCF RECON,ioos:station:SCCF:11:1,2012-08-06T19:00:00Z,26.4679,-82.0631,2.16,6.95,1111122 
SCCF RECON,ioos:station:SCCF:11:1,2012-08-06T20:00:00Z,26.4679,-82.0631,2.24,5.96,1111122 
SCCF RECON,ioos:station:SCCF:11:1,2012-08-06T21:00:00Z,26.4679,-82.0631,2.32,6.17,1111122 
SCCF RECON,ioos:station:SCCF:11:1,2012-08-06T22:00:00Z,26.4679,-82.0631,2.212,6.66,1111122 
SCCF RECON,ioos:station:SCCF:11:1,2012-08-06T23:00:00Z,26.4679,-82.0631,2.094,6.41,1111122 
SCCF RECON,ioos:station:SCCF:11:1,2012-08-07T00:00:00Z,26.4679,-82.0631,1.997,6.15,1111122 
SCCF RECON,ioos:station:SCCF:11:1,2012-08-07T01:00:00Z,26.4679,-82.0631,1.953,6.08,1111122 
SCCF RECON,ioos:station:SCCF:11:1,2012-08-07T02:00:00Z,26.4679,-82.0631,1.871,6.22,1111122 
SCCF RECON,ioos:station:SCCF:11:1,2012-08-07T03:00:00Z,26.4679,-82.0631,1.87,5.54,1111122 
SCCF RECON,ioos:station:SCCF:11:1,2012-08-07T04:00:00Z,26.4679,-82.0631,1.86,5.52,1111122 
SCCF RECON,ioos:station:SCCF:11:1,2012-08-07T05:00:00Z,26.4679,-82.0631,1.969,5.4,1111122 
SCCF RECON,ioos:station:SCCF:11:1,2012-08-07T06:00:00Z,26.4679,-82.0631,2.09,5.52,1111122 
SCCF RECON,ioos:station:SCCF:11:1,2012-08-07T07:00:00Z,26.4679,-82.0631,2.17,5.7,1111122 
SCCF RECON,ioos:station:SCCF:11:1,2012-08-07T08:00:00Z,26.4679,-82.0631,2.26,5.23,1111122 
SCCF RECON,ioos:station:SCCF:11:1,2012-08-07T09:00:00Z,26.4679,-82.0631,2.31,5.27,1111122 
SCCF RECON,ioos:station:SCCF:11:1,2012-08-07T10:00:00Z,26.4679,-82.0631,2.26,5.33,1111122 
SCCF RECON,ioos:station:SCCF:11:1,2012-08-07T11:00:00Z,26.4679,-82.0631,2.16,5.07,1111122 
SCCF RECON,ioos:station:SCCF:11:1,2012-08-07T12:00:00Z,26.4679,-82.0631,2.031,4.73,1111122 
SCCF RECON,ioos:station:SCCF:11:1,2012-08-07T13:00:00Z,26.4679,-82.0631,1.93,4.4,1111122 
SCCF RECON,ioos:station:SCCF:11:1,2012-08-07T14:00:00Z,26.4679,-82.0631,1.86,4.5,1111122 
SCCF RECON,ioos:station:SCCF:11:1,2012-08-07T15:00:00Z,26.4679,-82.0631,1.796,4.64,1111122 
SCCF RECON,ioos:station:SCCF:11:1,2012-08-07T16:00:00Z,26.4679,-82.0631,1.768,5.3,1111122 
SCCF RECON,ioos:station:SCCF:11:1,2012-08-07T17:00:00Z,26.4679,-82.0631,1.84,5.3,1111122 
SCCF RECON,ioos:station:SCCF:11:1,2012-08-07T18:00:00Z,26.4679,-82.0631,1.95,5.72,1111122 
SCCF RECON,ioos:station:SCCF:11:1,2012-08-07T19:00:00Z,26.4679,-82.0631,2.04,6.56,1111122 
SCCF RECON,ioos:station:SCCF:11:1,2012-08-07T20:00:00Z,26.4679,-82.0631,2.115,7.3,1111122 
SCCF RECON,ioos:station:SCCF:11:1,2012-08-07T21:00:00Z,26.4679,-82.0631,2.142,7.03,1111122 
SCCF RECON,ioos:station:SCCF:11:1,2012-08-07T22:00:00Z,26.4679,-82.0631,2.14,6.32,1111122 
SCCF RECON,ioos:station:SCCF:11:1,2012-08-07T23:00:00Z,26.4679,-82.0631,2.1,7.3,1111122 
SCCF RECON,ioos:station:SCCF:11:1,2012-08-08T00:00:00Z,26.4679,-82.0631,2.1,6.92,1111122 
SCCF RECON,ioos:station:SCCF:11:1,2012-08-08T01:00:00Z,26.4679,-82.0631,2.07,5.88,1111122 
SCCF RECON,ioos:station:SCCF:11:1,2012-08-08T02:00:00Z,26.4679,-82.0631,2.002,6.98,1111122 
SCCF RECON,ioos:station:SCCF:11:1,2012-08-08T03:00:00Z,26.4679,-82.0631,1.93,6.75,1111122 
SCCF RECON,ioos:station:SCCF:11:1,2012-08-08T04:00:00Z,26.4679,-82.0631,1.93,6.39,1111122 
SCCF RECON,ioos:station:SCCF:11:1,2012-08-08T05:00:00Z,26.4679,-82.0631,1.98,6.18,1111122 
SCCF RECON,ioos:station:SCCF:11:1,2012-08-08T06:00:00Z,26.4679,-82.0631,2.1,5.68,1111122 
SCCF RECON,ioos:station:SCCF:11:1,2012-08-08T07:00:00Z,26.4679,-82.0631,2.2,5.95,1111122 
SCCF RECON,ioos:station:SCCF:11:1,2012-08-08T08:00:00Z,26.4679,-82.0631,2.27,5.49,1111122 
SCCF RECON,ioos:station:SCCF:11:1,2012-08-08T09:00:00Z,26.4679,-82.0631,2.3,5.44,1111122 
SCCF RECON,ioos:station:SCCF:11:1,2012-08-08T10:00:00Z,26.4679,-82.0631,2.29,5.11,1111122 
SCCF RECON,ioos:station:SCCF:11:1,2012-08-08T11:00:00Z,26.4679,-82.0631,2.24,5.46,1111122 
SCCF RECON,ioos:station:SCCF:11:1,2012-08-08T12:00:00Z,26.4679,-82.0631,2.187,5.34,1111122 
SCCF RECON,ioos:station:SCCF:11:1,2012-08-08T13:00:00Z,26.4679,-82.0631,2.099,5.16,1111122 
SCCF RECON,ioos:station:SCCF:11:1,2012-08-08T14:00:00Z,26.4679,-82.0631,1.993,5.2,1111122 
SCCF RECON,ioos:station:SCCF:11:1,2012-08-08T15:00:00Z,26.4679,-82.0631,1.9,5.4,1111122 
SCCF RECON,ioos:station:SCCF:11:1,2012-08-08T16:00:00Z,26.4679,-82.0631,1.821,5.23,1111122 
SCCF RECON,ioos:station:SCCF:11:1,2012-08-08T17:00:00Z,26.4679,-82.0631,1.8,6.09,1111122 
SCCF RECON,ioos:station:SCCF:11:1,2012-08-08T18:00:00Z,26.4679,-82.0631,1.843,6.28,1111122 
SCCF RECON,ioos:station:SCCF:11:1,2012-08-08T19:00:00Z,26.4679,-82.0631,1.94,6.87,1111122 
SCCF RECON,ioos:station:SCCF:11:1,2012-08-08T20:00:00Z,26.4679,-82.0631,2.042,7.86,1111122 
SCCF RECON,ioos:station:SCCF:11:1,2012-08-08T21:00:00Z,26.4679,-82.0631,2.1,7.15,1111122 
SCCF RECON,ioos:station:SCCF:11:1,2012-08-08T22:00:00Z,26.4679,-82.0631,2.092,8.36,1111122 
SCCF RECON,ioos:station:SCCF:11:1,2012-08-08T23:00:00Z,26.4679,-82.0631,2.077,8.36,1111122 
SCCF RECON,ioos:station:SCCF:11:1,2012-08-09T00:00:00Z,26.4679,-82.0631,2.061,7.62,1111122 
SCCF RECON,ioos:station:SCCF:11:1,2012-08-09T01:00:00Z,26.4679,-82.0631,2.062,7.65,1111122 
SCCF RECON,ioos:station:SCCF:11:1,2012-08-09T02:00:00Z,26.4679,-82.0631,2.01,7.43,1111122 
SCCF RECON,ioos:station:SCCF:11:1,2012-08-09T03:00:00Z,26.4679,-82.0631,1.97,7.29,1111122 
SCCF RECON,ioos:station:SCCF:11:1,2012-08-09T04:00:00Z,26.4679,-82.0631,1.949,6.92,1111122 
SCCF RECON,ioos:station:SCCF:11:1,2012-08-09T05:00:00Z,26.4679,-82.0631,1.93,6.52,1111122 
SCCF RECON,ioos:station:SCCF:11:1,2012-08-09T06:00:00Z,26.4679,-82.0631,1.96,6.36,1111122 
SCCF RECON,ioos:station:SCCF:11:1,2012-08-09T07:00:00Z,26.4679,-82.0631,2.04,5.83,1111122 
SCCF RECON,ioos:station:SCCF:11:1,2012-08-09T08:00:00Z,26.4679,-82.0631,2.12,5.84,1111122 
SCCF RECON,ioos:station:SCCF:11:1,2012-08-09T09:00:00Z,26.4679,-82.0631,2.2,5.75,1111122 
SCCF RECON,ioos:station:SCCF:11:1,2012-08-09T10:00:00Z,26.4679,-82.0631,2.252,5.26,1111122 
SCCF RECON,ioos:station:SCCF:11:1,2012-08-09T11:00:00Z,26.4679,-82.0631,2.26,5.23,1111122 
SCCF RECON,ioos:station:SCCF:11:1,2012-08-09T12:00:00Z,26.4679,-82.0631,2.2,5.45,1111122 
SCCF RECON,ioos:station:SCCF:11:1,2012-08-09T13:00:00Z,26.4679,-82.0631,2.1,5.33,1111122 
SCCF RECON,ioos:station:SCCF:11:1,2012-08-09T14:00:00Z,26.4679,-82.0631,1.98,5.04,1111122 
SCCF RECON,ioos:station:SCCF:11:1,2012-08-09T15:00:00Z,26.4679,-82.0631,1.886,5.12,1111122 
SCCF RECON,ioos:station:SCCF:11:1,2012-08-09T16:00:00Z,26.4679,-82.0631,1.829,5.24,1111122 
SCCF RECON,ioos:station:SCCF:11:1,2012-08-09T17:00:00Z,26.4679,-82.0631,1.789,5.63,1111122 
SCCF RECON,ioos:station:SCCF:11:1,2012-08-09T18:00:00Z,26.4679,-82.0631,1.746,6.1,1111122 
SCCF RECON,ioos:station:SCCF:11:1,2012-08-09T19:00:00Z,26.4679,-82.0631,1.742,6.31,1111122 
SCCF RECON,ioos:station:SCCF:11:1,2012-08-09T20:00:00Z,26.4679,-82.0631,1.827,6.0,1111122 
SCCF RECON,ioos:station:SCCF:11:1,2012-08-09T21:00:00Z,26.4679,-82.0631,1.91,7.63,1111122 
SCCF RECON,ioos:station:SCCF:11:1,2012-08-09T22:00:00Z,26.4679,-82.0631,1.979,7.14,1111122 
SCCF RECON,ioos:station:SCCF:11:1,2012-08-09T23:00:00Z,26.4679,-82.0631,2.06,7.18,1111122 
SCCF RECON,ioos:station:SCCF:11:1,2012-08-10T00:00:00Z,26.4679,-82.0631,2.1,6.6,1111122 
SCCF RECON,ioos:station:SCCF:11:1,2012-08-10T01:00:00Z,26.4679,-82.0631,2.09,6.36,1111122 
SCCF RECON,ioos:station:SCCF:11:1,2012-08-10T02:00:00Z,26.4679,-82.0631,2.06,6.29,1111122 
SCCF RECON,ioos:station:SCCF:11:1,2012-08-10T03:00:00Z,26.4679,-82.0631,2.06,6.03,1111122 
SCCF RECON,ioos:station:SCCF:11:1,2012-08-10T04:00:00Z,26.4679,-82.0631,2.05,5.38,1111122 
SCCF RECON,ioos:station:SCCF:11:1,2012-08-10T05:00:00Z,26.4679,-82.0631,2.007,6.03,1111122 
SCCF RECON,ioos:station:SCCF:11:1,2012-08-10T06:00:00Z,26.4679,-82.0631,1.98,5.73,1111122 
SCCF RECON,ioos:station:SCCF:11:1,2012-08-10T07:00:00Z,26.4679,-82.0631,2.03,5.07,1111122 
SCCF RECON,ioos:station:SCCF:11:1,2012-08-10T08:00:00Z,26.4679,-82.0631,2.11,5.17,1111122 
SCCF RECON,ioos:station:SCCF:11:1,2012-08-10T09:00:00Z,26.4679,-82.0631,2.2,4.78,1111122 
SCCF RECON,ioos:station:SCCF:11:1,2012-08-10T10:00:00Z,26.4679,-82.0631,2.27,4.55,1111122 
SCCF RECON,ioos:station:SCCF:11:1,2012-08-10T11:00:00Z,26.4679,-82.0631,2.331,4.59,1111122 
SCCF RECON,ioos:station:SCCF:11:1,2012-08-10T12:00:00Z,26.4679,-82.0631,2.306,4.44,1111122 
SCCF RECON,ioos:station:SCCF:11:1,2012-08-10T13:00:00Z,26.4679,-82.0631,2.222,4.75,1111122 
SCCF RECON,ioos:station:SCCF:11:1,2012-08-10T14:00:00Z,26.4679,-82.0631,2.14,4.85,1111122 
SCCF RECON,ioos:station:SCCF:11:1,2012-08-10T15:00:00Z,26.4679,-82.0631,2.08,4.74,1111122 
SCCF RECON,ioos:station:SCCF:11:1,2012-08-10T16:00:00Z,26.4679,-82.0631,1.978,5.1,1111122 
SCCF RECON,ioos:station:SCCF:11:1,2012-08-10T17:00:00Z,26.4679,-82.0631,1.854,5.28,1111122 
SCCF RECON,ioos:station:SCCF:11:1,2012-08-10T18:00:00Z,26.4679,-82.0631,1.77,5.83,1111122 
SCCF RECON,ioos:station:SCCF:11:1,2012-08-10T19:00:00Z,26.4679,-82.0631,1.733,7.1,1111122 
SCCF RECON,ioos:station:SCCF:11:1,2012-08-10T20:00:00Z,26.4679,-82.0631,1.73,7.37,1111122 
SCCF RECON,ioos:station:SCCF:11:1,2012-08-10T21:00:00Z,26.4679,-82.0631,1.83,6.6,1111122 
SCCF RECON,ioos:station:SCCF:11:1,2012-08-10T22:00:00Z,26.4679,-82.0631,1.93,6.52,1111122 
SCCF RECON,ioos:station:SCCF:11:1,2012-08-10T23:00:00Z,26.4679,-82.0631,1.98,6.15,1111122 
SCCF RECON,ioos:station:SCCF:11:1,2012-08-11T00:00:00Z,26.4679,-82.0631,2.043,6.33,1111122 
SCCF RECON,ioos:station:SCCF:11:1,2012-08-11T01:00:00Z,26.4679,-82.0631,2.055,5.84,1111122 
SCCF RECON,ioos:station:SCCF:11:1,2012-08-11T02:00:00Z,26.4679,-82.0631,1.982,5.92,1111122 
SCCF RECON,ioos:station:SCCF:11:1,2012-08-11T03:00:00Z,26.4679,-82.0631,2.031,5.68,1111122 
SCCF RECON,ioos:station:SCCF:11:1,2012-08-11T04:00:00Z,26.4679,-82.0631,2.08,5.82,1111122 
SCCF RECON,ioos:station:SCCF:11:1,2012-08-11T05:00:00Z,26.4679,-82.0631,2.04,5.7,1111122 
SCCF RECON,ioos:station:SCCF:11:1,2012-08-11T06:00:00Z,26.4679,-82.0631,1.99,5.38,1111122 
SCCF RECON,ioos:station:SCCF:11:1,2012-08-11T07:00:00Z,26.4679,-82.0631,2.02,5.13,1111122 
SCCF RECON,ioos:station:SCCF:11:1,2012-08-11T08:00:00Z,26.4679,-82.0631,2.101,5.24,1111122 
SCCF RECON,ioos:station:SCCF:11:1,2012-08-11T09:00:00Z,26.4679,-82.0631,2.2,4.63,1111122 
SCCF RECON,ioos:station:SCCF:11:1,2012-08-11T10:00:00Z,26.4679,-82.0631,2.23,4.87,1111122 
SCCF RECON,ioos:station:SCCF:11:1,2012-08-11T11:00:00Z,26.4679,-82.0631,2.24,4.43,1111122 
SCCF RECON,ioos:station:SCCF:11:1,2012-08-11T12:00:00Z,26.4679,-82.0631,2.27,4.52,1111122 
SCCF RECON,ioos:station:SCCF:11:1,2012-08-11T13:00:00Z,26.4679,-82.0631,2.28,4.13,1111122 
SCCF RECON,ioos:station:SCCF:11:1,2012-08-11T14:00:00Z,26.4679,-82.0631,2.25,4.85,1111122 
SCCF RECON,ioos:station:SCCF:11:1,2012-08-11T15:00:00Z,26.4679,-82.0631,2.16,4.74,1111122 
SCCF RECON,ioos:station:SCCF:11:1,2012-08-11T16:00:00Z,26.4679,-82.0631,2.07,4.6,1111122 
SCCF RECON,ioos:station:SCCF:11:1,2012-08-11T17:00:00Z,26.4679,-82.0631,1.97,4.84,1111122 
SCCF RECON,ioos:station:SCCF:11:1,2012-08-11T18:00:00Z,26.4679,-82.0631,1.86,4.94,1111122 
SCCF RECON,ioos:station:SCCF:11:1,2012-08-11T19:00:00Z,26.4679,-82.0631,1.744,5.4,1111122 
SCCF RECON,ioos:station:SCCF:11:1,2012-08-11T20:00:00Z,26.4679,-82.0631,1.68,6.09,1111122 
SCCF RECON,ioos:station:SCCF:11:1,2012-08-11T21:00:00Z,26.4679,-82.0631,1.688,6.59,1111122 